User: anonymous   Login
Location: Newark
(42.8481°N, 0.4872°E)
Time: 00:05:57
(UTC+00:00)
Language:

Courier 1B Rocket - Orbit

View from above orbital plane
View from above orbital plane
View from above satellite
View from above satellite

Ground track
Ground track

The orbit data is extracted from the following two-line orbital elements,

1    59U 60013B   20300.58334526 +.00000096 +00000-0 +99112-5 0  9997
2    59 028.2492 264.6205 0189021 306.7804 051.5529 13.52978963964343
Epoch (UTC): 26 October 2020 14:00:01
Eccentricity: 0.0189021
inclination: 28.2492°
perigee height: 920 km
apogee height: 1202 km
right ascension of ascending node: 264.6205°
argument of perigee: 306.7804°
revolutions per day: 13.52978963
mean anomaly at epoch: 51.5529°
orbit number at epoch: 96434

The dashed part of the orbit path shows where the satellite is in the earth's shadow,  

DLR